Other Public Products
Issued by NWS Grand Forks, ND

Home | Current Version | Previous Version | Text Only | Print | Product List | Glossary On
Versions: 1 2 3 4 5 6 7 8 9 10 11 12 13 14 15 16 17 18 19 20 21 22 23 24 25 26 27 28 29 30 31 32 33 34 35 36 37 38 39 40 41 42 43 44 45 46 47 48 49 50
000
FPUS83 KFGF 050631
OPUFGF
PRAIRIE TO PINES WEATHER ROUNDUP
NATIONAL WEATHER SERVICE EASTERN NORTH DAKOTA/GRAND FORKS ND
100 AM CDT TUE MAY 05 2015

 **SATELLITE DATA USED TO AUGMENT SKY COVER AT AUTOMATED STATIONS**
 *****  WEATHER ACROSS EASTERN NORTH DAKOTA  *****

CITY           SKY/WX    TMP DP  RH WIND       PRES   REMARKS
GRAND FORKS    CLEAR     44  27  51 S5        30.17R
6HR MIN TEMP:  43; 6HR MAX TEMP:  69;

GRAND FORKS AF CLEAR     48  26  41 S9        30.17R
GRAND CITY NWS   N/A     46 N/A N/A S5          N/A
BUXTON           N/A     53  23  30 CALM        N/A
DEVILS LAKE    CLEAR     48  34  57 S8        30.15R
6HR MIN TEMP:  50; 6HR MAX TEMP:  66;

FARGO          CLEAR     46  24  42 SE6       30.18S
6HR MIN TEMP:  46; 6HR MAX TEMP:  68;

WAHPETON ARPT  CLEAR     46  27  46 E7        30.20R
$$

 *****  WEATHER ACROSS CENTRAL AND WESTERN NORTH DAKOTA  *****

CITY           SKY/WX    TMP DP  RH WIND       PRES   REMARKS
JAMESTOWN      CLEAR     49  26  41 SE8       30.16S
6HR MIN TEMP:  49; 6HR MAX TEMP:  66;

BISMARCK       CLOUDY    53  32  44 SE5       30.12S
6HR MIN TEMP:  47; 6HR MAX TEMP:  67;

MINOT          CLOUDY    54  32  43 E9        30.09R
6HR MIN TEMP:  54; 6HR MAX TEMP:  69;

MINOT AFB      CLOUDY    55  34  45 S6        30.08R
6HR MIN TEMP:  51; 6HR MAX TEMP:  72;

GARRISON         N/A     51  34  52 SE6       30.10S
6HR MIN TEMP:  49; 6HR MAX TEMP:  67;

WILLISTON      CLEAR     54  32  43 S12       30.02F
6HR MIN TEMP:  54; 6HR MAX TEMP:  69;

DICKINSON      CLEAR     44  29  55 SE12      30.04F
6HR MIN TEMP:  43; 6HR MAX TEMP:  59;

HETTINGER      MOCLDY    50  27  40 SE12      30.08F
6HR MIN TEMP:  47; 6HR MAX TEMP:  52;

$$

 *****  OTHER OBSERVATIONS NORTHEAST NORTH DAKOTA  *****

CITY           SKY/WX    TMP DP  RH WIND       PRES   REMARKS
WALHALLA       FAIR      43  28  56 SE3       30.15S
LANGDON        FAIR      46  25  42 S13       30.16R
CAVALIER       FAIR      41  30  65 S6        30.15S
GRAFTON        FAIR      45  28  53 S8        30.17S
CANDO          FAIR      46  32  57 SE10      30.14S
FORT TOTTEN    NOT AVBL
ROLLA          NOT AVBL
RUGBY          NOT AVBL
 ***** THE ABOVE OBSERVATIONS ARE NON NWS ARE NOT QUALITY
        CONTROLLED AND MAY MIS-REPORT RAIN FOR SNOW...
$$

 *****  OTHER OBSERVATIONS SOUTHEAST NORTH DAKOTA *****

CITY           SKY/WX    TMP DP  RH WIND       PRES   REMARKS
COOPERSTOWN    NOT AVBL
VALLEY CITY    FAIR      48  25  40 S6        30.18S
OAKES            N/A     48  32  53 E14       30.17S
GWINNER        CLEAR     46  30  53 SE3       30.19S
SHEYENNE NWR     N/A     43  26  51 E5        29.95S
BUFFALO        NOT AVBL
WYNDMERE       NOT AVBL
 ***** THE ABOVE OBSERVATIONS ARE NON NWS ARE NOT QUALITY
       CONTROLLED AND MAY MIS-REPORT RAIN FOR SNOW...
$$

  *****  WEATHER ACROSS NORTHERN MINNESOTA  *****

CITY           SKY/WX    TMP DP  RH WIND       PRES   REMARKS
FLAG ISLAND    CLEAR     48  37  66 CALM      30.18S
WARROAD        CLEAR     43  36  75 S3        30.20S
ROSEAU         CLEAR     41  28  60 SE5       30.19S
HALLOCK        CLEAR     45  19  36 SE9       30.16S
THF RVR FALLS  CLEAR     48  25  40 SE8       30.20S
6HR MIN TEMP:  48; 6HR MAX TEMP:  66;

HALSTAD          N/A     42  16  34 SE7         N/A
FOSSTON        FAIR      45  30  57 SE7       30.21S
BAUDETTE       CLEAR     42  36  79 CALM      30.20S
6HR MIN TEMP:  39; 6HR MAX TEMP:  64;

WASKISH        CLEAR     45  30  57 CALM      30.22R
CROOKSTON      CLEAR     46  28  49 S9        30.20R
$$
  *****  WEATHER ACROSS CENTRAL AND WEST MINNESOTA  *****

CITY           SKY/WX    TMP DP  RH WIND       PRES   REMARKS
BEMIDJI        CLEAR     38  28  69 CALM      30.23R
PARK RAPIDS    CLEAR     44  32  62 CALM      30.23R
6HR MIN TEMP:  41; 6HR MAX TEMP:  65;

WADENA         CLEAR     39  30  70 CALM      30.23R
DETROIT LAKES  CLEAR     46  34  61 SE3       30.23R
MOORHEAD       CLEAR     48  27  43 SE5       30.20S
FERGUS FALLS   CLEAR     54  30  40 E7        30.22R
ELBOW LAKE     FAIR      54  32  43 E9        30.20S
6HR MIN TEMP:  54; 6HR MAX TEMP:  65;

MORRIS MN      CLEAR     54  30  40 E9        30.19S
STAPLES        CLEAR     39  34  81 CALM      30.23S
WHEATON        CLEAR     39  25  56 E6        30.21S
$$
  *****  WEATHER ELSEWHERE ACROSS MINNESOTA  *****

CITY           SKY/WX    TMP DP  RH WIND       PRES   REMARKS
DULUTH         FAIR      42  28  57 CALM      30.24R
6HR MIN TEMP:  41; 6HR MAX TEMP:  65;

INTRNTL FALLS  CLEAR     31  28  89 CALM      30.21S
6HR MIN TEMP:  31; 6HR MAX TEMP:  62;

ELY            CLEAR     34  27  75 CALM      30.25S
CLOQUET        CLEAR     41  27  56 NE5       30.24R
BRAINERD       CLEAR     37  29  72 CALM      30.23S
6HR MIN TEMP:  36; 6HR MAX TEMP:  64;

HIBBING        CLEAR     35  25  66 CALM      30.24R
6HR MIN TEMP:  33; 6HR MAX TEMP:  65;

ALEXANDRIA     CLEAR     51  28  41 E8        30.22S
6HR MIN TEMP:  51; 6HR MAX TEMP:  65;

SAINT CLOUD    CLEAR     52  22  30 NE5       30.22R
6HR MIN TEMP:  49; 6HR MAX TEMP:  67;

MINNEAPOLIS    PTCLDY    57  28  33 NE5       30.20R
6HR MIN TEMP:  57; 6HR MAX TEMP:  69;

$$

  *****  WEATHER ACROSS SOUTH DAKOTA  *****

CITY           SKY/WX    TMP DP  RH WIND       PRES   REMARKS
SIOUX FALLS    MOCLDY    51  31  46 E7        30.15S
6HR MIN TEMP:  50; 6HR MAX TEMP:  69;

BROOKINGS      PTCLDY    54  28  37 E6        30.18S
WATERTOWN      PTCLDY    55  28  35 E9        30.17S
6HR MIN TEMP:  55; 6HR MAX TEMP:  67;

HURON          CLEAR     54  31  41 SE8       30.13S
6HR MIN TEMP:  54; 6HR MAX TEMP:  70;

SISSETON         N/A     45  36  70 S3        30.18S
ABERDEEN       PTCLDY    51  30  44 E8        30.15S
6HR MIN TEMP:  50; 6HR MAX TEMP:  68;

MITCHELL       CLEAR     50  35  56 SE6       30.14R
PIERRE         CLOUDY    55  27  34 E7        30.10R
6HR MIN TEMP:  53; 6HR MAX TEMP:  66;

MOBRIDGE       CLOUDY    57  25  29 SE8       30.09F
RAPID CITY     CLOUDY    47  37  68 S5        30.08F
6HR MIN TEMP:  46; 6HR MAX TEMP:  59;

$$

  *****  SOME WEATHER IN NEARBY STATES *****

CITY           SKY/WX    TMP DP  RH WIND       PRES   REMARKS
GLASGOW MT     CLEAR     54  35  48 SE20      29.87S
6HR MIN TEMP:  53; 6HR MAX TEMP:  73;

GREAT FALLS MT MOCLDY    56  23  27 S9        29.79S
6HR MIN TEMP:  49; 6HR MAX TEMP:  76;

CHEYENNE WY    CLOUDY    44  42  93 CALM      30.09F FOG
6HR MIN TEMP:  43; 6HR MAX TEMP:  52; 6HR PCP: TRACE;

SCOTTSBLUFF NE CLOUDY    50  41  71 SE8       30.10F
6HR MIN TEMP:  49; 6HR MAX TEMP:  61;

OMAHA NE       CLOUDY    60  57  89 SE3       30.07F
6HR MIN TEMP:  59; 6HR MAX TEMP:  61; 6HR PCP:  0.01;

DES MOINES IA  CLOUDY    64  61  90 E6        30.07S
6HR MIN TEMP:  64; 6HR MAX TEMP:  67; 6HR PCP:  0.06;

DAVENPORT IA   TSTM      61  58  90 E15       30.14R FOG
6HR MIN TEMP:  63; 6HR MAX TEMP:  71; 6HR PCP:  0.36;

CHICAGO IL     CLOUDY    56  38  50 NW5       30.18R
6HR MIN TEMP:  55; 6HR MAX TEMP:  62;

EAU CLAIRE WI  PTCLDY    49  36  61 NE6       30.21R
6HR MIN TEMP:  45; 6HR MAX TEMP:  68;

LA CROSSE WI   CLOUDY    57  47  69 CALM      30.17R
6HR MIN TEMP:  55; 6HR MAX TEMP:  69;

$$

  *****  SOME NATIONAL WEATHER *****

CITY           SKY/WX    TMP DP  RH WIND       PRES   REMARKS


USA.gov is the U.S. government's official web portal to all federal, state and local government web resources and services.